Location: Abundant Grace Fellowship
(35.0349°N, 90.0924°W)
Time: 21:59:14
(UTC+00:00)

CZ-4 R/B - Pass Details

Date: 18 January 2026
Orbit: 676 x 743 km, 98.7° (Epoch: 10 February)

Event Time Altitude Azimuth Distance (km) Brightness Sun altitude
Rises 11:30:52 0° 7° (N) 3,114 7.1 -19.5°
Reaches altitude 10° 11:33:09 10° 4° (N) 2,202 6.3 -19.0°
Maximum altitude 11:37:53 57° 286° (WNW) 855 3.9 -18.1°
Drops below altitude 10° 11:42:39 10° 209° (SSW) 2,226 6.2 -17.1°
Sets 11:44:58 0° 205° (SSW) 3,151 7.1 -16.7°
